📊 Raw Sensor Data
Showing records 37401 to 37425 of 84,912 total
| ID | Distance (ft) | Battery V | Battery A | Int Temp (°F) | Int Humid (%) | Ext Temp (°F) | Solar V | RSSI | SNR | Time Stamp |
|---|---|---|---|---|---|---|---|---|---|---|
| 47524 | 15.2 | 3.95 | 0 | 76 | 54 | 71 | 4.50 | -69 | 8 | 07/27/2025 08:00 PM |
| 47523 | 15.3 | 3.96 | 0 | 80 | 53 | 74 | 4.60 | -72 | 7 | 07/27/2025 07:45 PM |
| 47522 | 15.3 | 3.97 | 7 | 82 | 53 | 76 | 4.60 | -70 | 7 | 07/27/2025 07:30 PM |
| 47521 | 15.3 | 3.99 | 0 | 85 | 52 | 77 | 4.50 | -71 | 7 | 07/27/2025 07:15 PM |
| 47520 | 15.3 | 4.00 | 40 | 89 | 51 | 81 | 4.50 | -72 | 8 | 07/27/2025 06:45 PM |
| 47519 | 15.3 | 3.93 | 5 | 91 | 50 | 83 | 5.10 | -71 | 7 | 07/27/2025 06:30 PM |
| 47518 | 15.3 | 3.93 | 0 | 91 | 50 | 83 | 5.10 | -71 | 8 | 07/27/2025 06:15 PM |
| 47517 | 15.3 | 4.11 | 0 | 92 | 50 | 83 | 5.10 | -72 | 8 | 07/27/2025 06:00 PM |
| 47516 | 15.3 | 3.93 | 5 | 94 | 49 | 83 | 5.10 | -70 | 7 | 07/27/2025 05:45 PM |
| 47515 | 15.3 | 4.11 | 5 | 94 | 48 | 86 | 5.10 | -70 | 8 | 07/27/2025 05:30 PM |
| 47514 | 15.3 | 3.93 | 5 | 96 | 46 | 86 | 5.10 | -71 | 7 | 07/27/2025 04:45 PM |
| 47513 | 15.3 | 3.94 | 5 | 96 | 45 | 87 | 5.10 | -71 | 7 | 07/27/2025 04:30 PM |
| 47512 | 15.3 | 3.92 | 5 | 95 | 44 | 87 | 5.10 | -70 | 8 | 07/27/2025 04:15 PM |
| 47511 | 15.3 | 3.92 | 5 | 94 | 44 | 85 | 5.10 | -70 | 7 | 07/27/2025 04:00 PM |
| 47510 | 15.3 | 4.03 | 5 | 94 | 44 | 84 | 5.10 | -71 | 8 | 07/27/2025 03:45 PM |
| 47509 | 15.3 | 4.02 | 5 | 94 | 43 | 86 | 5.10 | -71 | 7 | 07/27/2025 03:30 PM |
| 47508 | 15.3 | 4.11 | 5 | 93 | 43 | 85 | 5.10 | -69 | 7 | 07/27/2025 03:15 PM |
| 47507 | 15.3 | 3.92 | 0 | 93 | 42 | 85 | 5.10 | -70 | 7 | 07/27/2025 03:00 PM |
| 47506 | 15.3 | 3.92 | 5 | 92 | 42 | 84 | 5.10 | -70 | 7 | 07/27/2025 02:45 PM |
| 47505 | 15.3 | 3.92 | 0 | 91 | 42 | 79 | 5.10 | -70 | 7 | 07/27/2025 02:30 PM |
| 47504 | 15.3 | 4.02 | 5 | 90 | 41 | 81 | 5.10 | -70 | 8 | 07/27/2025 02:15 PM |
| 47503 | 15.3 | 4.02 | 5 | 89 | 41 | 79 | 5.10 | -71 | 7 | 07/27/2025 02:00 PM |
| 47502 | 15.3 | 3.92 | 5 | 87 | 42 | 81 | 5.10 | -70 | 7 | 07/27/2025 01:45 PM |
| 47501 | 15.3 | 3.97 | 5 | 85 | 42 | 79 | 5.10 | -73 | 8 | 07/27/2025 01:30 PM |
| 47500 | 15.3 | 3.92 | 0 | 84 | 42 | 78 | 5.10 | -70 | 8 | 07/27/2025 01:15 PM |